Starlink 32921

operational
NORAD ID: 62920 Int'l Des: 2025-027 Owner: SPXS Country: US Constellation: starlink
LEOCIRCULAR

Starlink 32921について

説明を読み込み中...

リアルタイム位置

3D地球を読み込み中...

次回通過

高度履歴

Altitude vs Time

uPlot chart will show altitude changes over time

軌道要素

1 62920U 25027P 26034.22971067 .00037169 00000-0 13523-2 0 9996
2 62920 42.9994 323.3540 0001210 289.5116 70.5605 15.27607782 56272
Epoch: Feb 3, 2026 • Age: 21 hours

現在のステータス

高度 483.4 km
速度 7.63 km/s
衛星直下点 25.22°N, 63.96°W
打ち上げ日 Feb 8, 2025
運用期間 0.9 years
タイプ internet

技術仕様

分類 Payload
質量 730.00 kg
乾燥質量 700.00 kg
総質量 730.00 kg
長さ 0.30 m
直径 4.10 m
スパン 29.00 m
形状 Box + pan
製造者 SPXS
バスタイプ Starlink V2M
フェーズステータス In Orbit
所有者/国 SPXS/US

大規模コンステレーション

Loading constellations...